Calgary Springbank,

8:12 AM MDT on October 23, 2017 (GMT -0600)
Calgary Springbank

Weather History for CYBW - October, 2011

Change the Weather History Date:

Thursday, October 20, 2011

  Actual Average Record
Temperature  
Mean Temperature 40 °F -  
Max Temperature 48 °F 39 °F 73 °F (2014)
Min Temperature 32 °F 18 °F 15 °F (1997)
Degree Days  
Heating Degree Days 25    
Moisture  
Dew Point 30 °F    
Average Humidity 64    
Maximum Humidity 93    
Minimum Humidity 38    
Precipitation  
Precipitation 0.00 in - - ()
Sea Level Pressure  
Sea Level Pressure 29.98 in    
Wind  
Wind Speed 8 mph ()    
Max Wind Speed 21 mph    
Max Gust Speed -    
Visibility 16.1 miles    
Events Rain    
Averages and records for this station are not official NWS values.
T = Trace of Precipitation, MM = Missing Value Source: Averaged Metar Reports

Daily Weather History Graph

Daily Weather History Graph

Search for Another Location

Airport or City:

Trip Planner

Search our weather history database for the weather conditions in past years. The results will help you decide how hot, cold, wet, or windy it might be!

Date:

Astronomy

Oct. 20, 2011 Rise Set
Actual Time 8:09 AM MDT 6:34 PM MDT
Civil Twilight 7:35 AM MDT 7:08 PM MDT
Nautical Twilight 6:56 AM MDT 7:46 PM MDT
Astronomical Twilight 6:18 AM MDT 8:24 PM MDT
Moon 12:11 AM MDT (10/20) 3:28 PM MDT (10/20)
Length of Visible Light 11h 32m
Length of Day
10h 25m
Last Quarter, 43% of the Moon is Illuminated
Oct 20
Last Quarter
Oct 26
New
Nov 2
First Quarter
Nov 10
Full
Nov 18
Last Quarter

Hourly Weather History & Observations

Time (MDT) Temp. Windchill Dew Point Humidity Pressure Visibility Wind Dir Wind Speed Gust Speed Precip Events Conditions
5:00 AM 50.0 °F - 30.2 °F 47% 29.83 in 15.0 mi West 12.7 mph - N/A   Scattered Clouds
6:00 AM 47 °F - 30 °F 38% 29.87 in 15 mi NNE 20.7 mph - -   Scattered Clouds
7:00 AM 41.0 °F 35.8 °F 32.0 °F 70% 29.90 in 15.0 mi North 8.1 mph - N/A   Scattered Clouds
8:00 AM 41.0 °F 35.8 °F 30.2 °F 65% 29.91 in 20.0 mi North 8.1 mph - N/A   Overcast
9:00 AM 41.0 °F 35.8 °F 30.2 °F 65% 29.98 in 20.0 mi North 8.1 mph - N/A   Overcast
10:00 AM 42.8 °F 39.3 °F 28.4 °F 57% 30.00 in 20.0 mi NNW 5.8 mph - N/A   Overcast
11:00 AM 42.8 °F 40.1 °F 30.2 °F 61% 30.01 in 20.0 mi NNE 4.6 mph - N/A   Overcast
12:00 PM 43 °F - 31 °F 51% 30.01 in 28 mi Calm Calm - -   Overcast
12:00 PM 42.8 °F - 30.2 °F 61% 30.01 in 30.0 mi Calm Calm - N/A   Overcast
1:00 PM 44.6 °F 41.4 °F 30.2 °F 57% 30.01 in 30.0 mi SE 5.8 mph - N/A   Mostly Cloudy
2:00 PM 46.4 °F 42.9 °F 30.2 °F 53% 29.98 in 30.0 mi ESE 6.9 mph - N/A   Mostly Cloudy
3:00 PM 48.2 °F - 32.0 °F 54% 29.95 in 30.0 mi SE 9.2 mph - N/A   Mostly Cloudy
4:00 PM 48.2 °F - 30.2 °F 50% 29.95 in 20.0 mi SSE 8.1 mph - N/A   Mostly Cloudy
5:00 PM 48.2 °F - 32.0 °F 54% 29.97 in 20.0 mi SE 9.2 mph - N/A   Mostly Cloudy
6:00 PM 40 °F - 30 °F 58% 30.04 in 19 mi North 15.0 mph - -   Overcast
6:00 PM 39.2 °F 30.5 °F 30.2 °F 70% 30.04 in 20.0 mi North 16.1 mph - N/A   Overcast
6:26 PM - - - N/A% - 10.0 mi North 17.3 mph - N/A Rain Light Rain Showers
7:00 PM 35.6 °F 29.9 °F 32.0 °F 87% 30.04 in 10.0 mi NE 6.9 mph - N/A Rain Light Rain Showers
7:31 PM - - - N/A% - 10.0 mi WSW 3.5 mph - N/A   Overcast
8:00 PM 33.8 °F 28.6 °F 30.2 °F 87% 30.06 in 15.0 mi WNW 5.8 mph - N/A   Mostly Cloudy
8:50 PM - - - N/A% - 10.0 mi North 5.8 mph - N/A   Overcast
9:00 PM 32.0 °F 26.4 °F 30.2 °F 93% 30.12 in 15.0 mi North 5.8 mph - N/A   Mostly Cloudy
10:00 PM 32.0 °F 25.6 °F 30.2 °F 93% 30.00 in 15.0 mi ENE 6.9 mph - N/A   Scattered Clouds